Weather observations for the past three days for
Chandler, Chandler Municipal Airport
Imperial (Metric)
Date Time (cdt) Wind (mph) Vis. (mi.) Weather Sky Cond. Temperature (ºF) Relative Humidity Wind Chill (°F) Heat Index (°F) Pressure Precipitation (in)
Air Dwpt 6 hour altimeter (in) sea level (mb) 1 hr 3 hr 6 hr
Max. Min.
03 22:30 S 8 10.00 Fair CLR 82.2 68.5 63% 85 29.93 0.0
03 22:10 S 10 10.00 Fair CLR 82.8 68.5 62% 86 29.93 0.0
03 21:50 S 9 10.00 Fair CLR 82.9 68.4 62% 86 29.93 0.0
03 21:30 SE 6 10.00 Fair CLR 83.1 68.2 61% 86 29.92 0.0
03 21:10 SE 8 10.00 Fair CLR 83.8 68 59% 87 29.91 0.0
03 20:50 SE 8 10.00 Fair CLR 84.9 68 57% 88 29.91 0.0
03 20:30 SE 10 G 17 10.00 Fair CLR 86 68.2 55% 90 29.9 0.0
03 20:15 SE 10 G 18 10.00 Fair CLR 86.7 68.2 54% 90 29.89 0.0
03 19:30 SE 9 10.00 Fair CLR 88.9 69.1 52% 93 29.88 0.0
03 19:10 S 13 10.00 Fair CLR 90.1 68.5 49% 94 29.87 0.0
03 18:50 S 10 10.00 Fair CLR 90.9 68.7 94.5 90.3 48% 95 29.87 0.0
03 18:30 S 14 G 23 10.00 Fair CLR 92.3 68.9 46% 97 29.87 0.0
03 18:10 SE 13 10.00 Fair CLR 92.8 68.7 45% 98 29.86 0.0
03 17:50 SE 13 G 22 10.00 Fair CLR 93.2 68.9 45% 98 29.86 0.0
03 17:30 SE 9 10.00 Fair CLR 92.8 69.3 46% 98 29.87 0.0
03 17:10 SE 10 7.00 Partly Cloudy SCT050 93.7 69.6 45% 100 29.87 0.0
03 16:50 SE 14 10.00 Partly Cloudy SCT050 93.4 69.8 46% 99 29.87 0.0
03 16:30 SE 13 G 18 10.00 Fair CLR 93.9 70.3 46% 100 29.87 0.0
03 16:10 SE 10 G 20 10.00 Fair CLR 93.2 70.3 47% 100 29.88 0.0
03 13:30 S 12 10.00 Fair CLR 91.2 70.2 50% 97 29.93 0.0
03 13:10 S 12 10.00 Fair CLR 91.6 69.8 49% 97 29.94 0.0
03 12:50 SE 13 G 18 10.00 Fair CLR 91 70 92.1 73.9 50% 97 29.94 0.0
03 12:30 SE 15 G 21 10.00 Fair CLR 90.9 70.7 52% 97 29.95 0.0
03 12:10 SE 9 G 18 10.00 Fair CLR 90.1 70.7 53% 96 29.95 0.0
03 11:50 SE 12 10.00 Fair CLR 89.2 71.2 55% 96 29.95 0.0
03 11:35 S 10 10.00 Fair CLR 89.1 70.9 55% 95 29.96 0.0
03 11:15 S 9 10.00 Fair CLR 87.8 70.9 57% 94 29.96 0.0
03 10:50 SE 12 10.00 Fair CLR 86.9 71.2 60% 93 29.96 0.0
03 10:30 SE 10 5.00 Fair with Haze CLR 85.1 70.9 63% 90 29.97 0.0
03 10:10 SE 8 10.00 Fair CLR 84.2 71.2 65% 89 29.97 0.0
03 09:50 S 9 10.00 Fair CLR 82.4 70.7 68% 87 29.97 0.0
03 09:30 S 10 10.00 Partly Cloudy SCT019 81.9 70.5 69% 86 29.98 0.0
03 09:10 S 10 10.00 Mostly Cloudy BKN019 81.1 70.7 71% 85 29.99 0.0
03 08:50 S 13 10.00 Partly Cloudy SCT019 79.5 70.3 74% 83 29.99 0.0
03 08:30 S 10 G 18 10.00 Fair CLR 78.6 70.2 75% 81 29.98 0.0
03 08:10 S 9 10.00 Fair CLR 77.4 69.6 77% 79 29.98 0.0
03 07:50 SE 7 10.00 Fair CLR 75.7 69.3 80% 77 29.98 0.0
03 07:30 SE 5 10.00 Fair CLR 74.7 68.9 82% 29.98 0.0
03 07:15 S 6 10.00 Fair CLR 74.1 68.7 83% 29.97 0.0
03 06:55 S 6 10.00 Fair CLR 74.1 68.5 82.9 73.9 83% 29.97 0.0
03 06:30 SE 6 10.00 Fair CLR 74.5 68.7 82% 29.96 0.0
03 06:10 SE 7 10.00 Fair CLR 74.8 68.5 81% 29.96 0.0
03 05:50 SE 7 10.00 Fair CLR 74.5 68.5 82% 29.96 0.0
03 05:30 SE 6 10.00 Fair CLR 75 68.5 80% 76 29.95 0.0
03 05:10 SE 6 10.00 Fair CLR 75.2 68.4 79% 76 29.96 0.0
03 04:50 SE 6 10.00 Fair CLR 75.7 68.4 78% 77 29.95 0.0
03 04:30 SE 6 10.00 Fair CLR 76.5 68.4 76% 78 29.95 0.0
03 04:10 SE 7 10.00 Fair CLR 77.2 68.5 75% 79 29.95 0.0
03 03:50 S 7 10.00 Fair CLR 77.5 68.4 73% 79 29.95 0.0
03 03:30 SE 7 10.00 Fair CLR 78.4 68.4 71% 81 29.95 0.0
03 03:10 S 8 10.00 Fair CLR 78.8 68.4 70% 81 29.95 0.0
03 02:50 SE 7 10.00 Fair CLR 79.9 68.4 68% 83 29.94 0.0
03 02:30 S 8 10.00 Fair CLR 80.4 68.4 67% 83 29.94 0.0
03 02:10 S 8 10.00 Fair CLR 80.8 68.2 66% 84 29.95 0.0
03 01:50 S 9 10.00 Fair CLR 81.5 68 64% 84 29.95 0.0
03 01:30 S 8 10.00 Fair CLR 82.4 68 62% 85 29.95 0.0
03 01:10 S 12 10.00 Fair CLR 82.8 67.8 61% 86 29.95 0.0
03 00:50 S 9 10.00 Fair CLR 82.9 67.6 96.6 82.8 60% 86 29.95 0.0
03 00:35 S 8 10.00 Fair CLR 83.5 67.6 59% 86 29.95 0.0
03 00:15 S 9 10.00 Fair CLR 84 67.3 57% 87 29.95 0.0
02 23:50 S 10 10.00 Fair CLR 85.1 66.7 54% 88 29.94 0.0
02 23:30 S 8 10.00 Fair CLR 84.6 65.8 54% 87 29.94 0.0
02 23:10 S 9 10.00 Fair CLR 84.2 65.3 53% 86 29.94 0.0
02 22:50 S 7 10.00 Fair CLR 84.2 64.8 52% 86 29.94 0.0
02 22:30 S 7 10.00 Fair CLR 86.2 64.6 49% 88 29.94 0.0
02 22:10 S 8 10.00 Fair CLR 87.1 64.2 47% 88 29.93 0.0
02 21:50 S 7 10.00 Fair CLR 86.5 64 47% 88 29.93 0.0
02 21:30 S 6 10.00 Fair CLR 86.4 64 47% 88 29.93 0.0
02 21:10 S 6 7.00 Fair CLR 86.7 63.7 46% 88 29.92 0.0
02 20:50 S 5 10.00 Fair CLR 87.4 63.3 45% 88 29.92 0.0
02 20:30 SE 6 10.00 Fair CLR 88.5 63.3 43% 90 29.91 0.0
02 20:15 SE 6 10.00 Fair CLR 89.4 63.1 42% 90 29.9 0.0
02 19:55 SE 5 10.00 Fair CLR 90.7 63 40% 92 29.9 0.0
02 19:30 SE 7 10.00 Fair CLR 93.9 63 36% 95 29.9 0.0
02 19:10 SE 9 10.00 Fair CLR 95.5 63.3 35% 97 29.9 0.0
02 18:50 SE 10 10.00 Fair CLR 96.8 63.3 101.1 95.5 33% 99 29.9 0.0
02 18:30 SE 10 10.00 Fair CLR 97.5 63.1 32% 99 29.9 0.0
02 18:10 S 10 10.00 Fair CLR 98.6 63.7 32% 101 29.9 0.0
02 17:50 SE 13 10.00 Fair CLR 99.3 63 30% 101 29.9 0.0
02 17:30 SE 9 7.00 Fair with Haze CLR 99.3 60.8 28% 100 29.9 0.0
02 17:10 SE 12 10.00 Fair CLR 99.3 62.1 29% 101 29.9 0.0
02 16:50 S 10 G 16 10.00 Fair CLR 100.2 61.5 28% 102 29.91 0.0
02 16:30 SE 13 G 18 10.00 Fair CLR 99.7 62.2 29% 101 29.91 0.0
02 16:10 SE 10 10.00 Partly Cloudy SCT080 100.4 62.1 28% 102 29.91 0.0
02 15:55 SE 12 G 20 7.00 Partly Cloudy SCT080 100.4 62.8 29% 102 29.92 0.0
02 15:35 SE 12 10.00 Fair CLR 100 64.4 31% 103 29.93 0.0
02 15:10 S 10 G 21 7.00 Partly Cloudy SCT075 99.3 64.9 32% 103 29.94 0.0
02 14:50 S 9 G 20 10.00 Partly Cloudy SCT075 99.7 65.7 33% 104 29.95 0.0
02 14:30 SE 13 G 17 10.00 Fair CLR 98.6 65.7 34% 102 29.96 0.0
02 14:10 S 13 10.00 Fair CLR 99 66.4 35% 103 29.97 0.0
02 13:50 S 7 G 16 10.00 Fair CLR 97.5 66.6 36% 102 29.97 0.0
02 13:30 SE 12 G 16 10.00 Partly Cloudy SCT065 97 65.7 36% 100 29.98 0.0
02 13:10 S 9 G 20 10.00 Partly Cloudy SCT060 96.4 67.5 39% 101 30 0.0
02 12:50 SE 3 10.00 Partly Cloudy SCT060 96.1 68.9 96.4 76.8 41% 102 30 0.0
02 12:30 SE 8 10.00 Fair CLR 94.8 68.5 42% 100 30.01 0.0
02 12:10 S 9 10.00 Fair CLR 95 68.5 42% 100 30.03 0.0
02 11:50 S 10 5.00 Fair with Haze CLR 93.9 68.5 44% 99 30.03 0.0
02 11:35 SE 10 G 16 10.00 Fair CLR 93.6 68.5 44% 98 30.03 0.0
02 11:15 SW 12 10.00 Fair CLR 93 68.7 45% 98 30.04 0.0
02 10:50 S 12 10.00 Fair CLR 92.7 69.3 46% 98 30.03 0.0
02 10:30 S 13 10.00 Fair CLR 91.2 68.9 48% 96 30.03 0.0
02 10:10 S 13 10.00 Fair CLR 90.9 69.4 50% 96 30.04 0.0
02 09:50 S 12 G 17 10.00 Fair CLR 88.7 68.9 52% 93 30.04 0.0
02 09:30 S 10 10.00 Fair CLR 87.8 69.8 55% 93 30.04 0.0
02 09:10 S 9 10.00 Fair CLR 86.5 69.6 57% 91 30.04 0.0
02 08:50 S 10 10.00 Fair CLR 84.4 69.3 61% 88 30.04 0.0
02 08:30 S 8 10.00 Fair CLR 82 68.7 64% 85 30.04 0.0
02 08:10 S 8 10.00 Fair CLR 80.6 68.2 66% 83 30.04 0.0
02 07:50 S 7 10.00 Fair CLR 78.8 67.8 69% 81 30.03 0.0
02 07:30 S 7 10.00 Fair CLR 77.7 67.3 70% 80 30.03 0.0
02 07:15 S 8 10.00 Fair CLR 77.4 67.1 71% 79 30.02 0.0
02 06:55 S 8 10.00 Fair CLR 77 66.9 82.8 76.5 71% 79 30.02 0.0
02 06:30 S 8 10.00 Fair CLR 77 66.6 70% 79 30.01 0.0
02 06:10 S 8 10.00 Fair CLR 77.5 66.6 69% 79 30.01 0.0
02 05:50 S 8 10.00 Fair CLR 78.3 66.2 67% 80 30 0.0
02 05:30 S 8 10.00 Fair CLR 78.6 66.2 66% 81 30 0.0
02 05:10 S 8 10.00 Fair CLR 79 66 65% 81 30 0.0
02 04:50 S 8 10.00 Fair CLR 78.8 66 65% 81 30 0.0
02 04:30 S 8 10.00 Fair CLR 79 65.8 64% 81 30 0.0
02 04:10 S 8 10.00 Fair CLR 79.3 65.8 63% 81 30 0.0
02 03:50 S 9 10.00 Fair CLR 79.5 65.8 63% 82 29.99 0.0
02 03:30 S 9 10.00 Fair CLR 80.2 65.7 61% 82 29.99 0.0
02 03:10 S 8 10.00 Fair CLR 79.2 65.5 63% 81 29.99 0.0
02 02:50 S 9 10.00 Fair CLR 79.7 65.5 62% 82 30 0.0
02 02:30 S 7 10.00 Fair CLR 80.8 65.1 59% 83 30 0.0
02 02:10 S 8 10.00 Fair CLR 82.6 65.1 56% 84 30 0.0
02 01:50 S 9 10.00 Fair CLR 82.2 65.1 56% 84 29.99 0.0
02 01:30 S 6 10.00 Fair CLR 79.2 64.4 61% 81 29.99 0.0
02 01:10 S 6 10.00 Fair CLR 79.3 64 60% 81 29.99 0.0
02 00:50 S 6 10.00 Fair CLR 78.8 63.9 96.1 78.8 60% 80 29.99 0.0
02 00:35 S 6 10.00 Fair CLR 79.2 63.7 59% 81 29.99 0.0
02 00:15 S 6 10.00 Fair CLR 79.7 63.5 58% 81 29.99 0.0
01 23:30 S 6 10.00 Fair CLR 80.4 63.3 56% 82 29.99 0.0
01 23:10 S 6 10.00 Fair CLR 82 63.1 53% 83 29.99 0.0
01 22:50 S 5 10.00 Fair CLR 82.4 63.1 52% 84 29.99 0.0
01 22:30 SE 5 10.00 Fair CLR 82.9 63 51% 84 29.98 0.0
01 22:10 S 5 10.00 Fair CLR 83.8 62.6 49% 85 29.98 0.0
01 21:50 S 6 10.00 Fair CLR 85.1 62.1 46% 86 29.97 0.0
01 21:30 S 6 10.00 Fair CLR 86.9 61.7 43% 87 29.96 0.0
01 21:10 SE 6 10.00 Fair CLR 87.3 61.7 42% 88 29.95 0.0
01 20:50 S 5 7.00 Fair CLR 86.7 61.7 43% 87 29.94 0.0
01 20:30 SE 5 10.00 Fair CLR 88.3 61.5 41% 89 29.94 0.0
01 20:15 S 6 10.00 Fair CLR 89.4 61.5 39% 90 29.93 0.0
01 19:55 S 5 10.00 Fair CLR 90.3 62.1 39% 91 29.93 0.0
01 19:30 SE 6 10.00 Fair CLR 92.5 62.2 37% 93 29.94 0.0
01 19:10 SE 5 10.00 Fair CLR 95 62.6 34% 96 29.94 0.0
01 18:50 S 7 10.00 Fair CLR 96.3 62.2 100.9 94.8 32% 97 29.94 0.0
01 18:30 S 8 10.00 Fair CLR 97.3 61.3 30% 98 29.94 0.0
01 18:10 S 9 10.00 Fair CLR 98.1 60.6 29% 99 29.95 0.0
01 17:30 S 8 10.00 Fair CLR 99.1 59.7 27% 99 29.95 0.0
01 17:10 S 12 10.00 Fair CLR 99.7 59.5 27% 100 29.95 0.0
01 16:50 SW 9 10.00 Partly Cloudy SCT100 100 58.8 26% 100 29.95 0.0
01 16:30 E 7 10.00 Mostly Cloudy BKN100 99.5 59.4 26% 100 29.95 0.0
01 16:10 SE 9 10.00 Mostly Cloudy BKN100 97.2 59.4 28% 97 29.96 0.0
01 15:55 E 7 10.00 Mostly Cloudy BKN100 97.7 59.9 29% 98 29.96 0.0
01 15:35 SE 8 7.00 Overcast OVC100 96.6 59.7 29% 97 29.97 0.0
01 15:10 SE 12 10.00 Mostly Cloudy BKN100 99.5 60.4 28% 100 29.98 0.0
01 14:50 S 9 10.00 Partly Cloudy SCT090 100 60.3 27% 101 29.98 0.0
01 14:30 S 13 10.00 Mostly Cloudy BKN090 BKN110 99.5 61.3 28% 101 29.99 0.0
01 14:10 SE 6 10.00 Partly Cloudy SCT100 96.6 60.8 31% 97 30 0.0
01 13:50 S 10 10.00 Partly Cloudy SCT095 99.1 61.7 29% 100 30 0.0
01 13:30 S 13 10.00 Partly Cloudy SCT085 98.6 61.3 29% 100 30.02 0.0
01 13:10 S 14 G 21 10.00 Partly Cloudy SCT085 99 61.5 29% 100 30.02 0.0
01 12:50 S 9 10.00 Partly Cloudy SCT085 97.7 61.3 99.5 73.6 30% 99 30.03 0.0
01 12:30 SW 10 10.00 Partly Cloudy SCT085 98.2 61.9 30% 99 30.04 0.0
01 12:10 S 7 10.00 Fair CLR 97.3 61.7 31% 98 30.04 0.0
01 11:50 SW 8 10.00 Fair CLR 96.6 62.4 32% 98 30.05 0.0
01 11:35 S 8 7.00 Fair CLR 95.9 63 34% 97 30.05 0.0
01 11:15 S 13 G 17 10.00 Fair CLR 94.3 64.9 38% 97 30.05 0.0
01 10:50 S 8 10.00 Fair CLR 92.8 65.8 41% 96 30.06 0.0
01 10:30 S 9 10.00 Fair CLR 90.5 66.7 46% 94 30.06 0.0
01 10:10 S 8 10.00 Fair CLR 88.5 66.9 49% 92 30.06 0.0
01 09:50 SW 8 10.00 Partly Cloudy SCT100 85.6 66.9 54% 88 30.06 0.0
01 09:30 SW 9 10.00 Mostly Cloudy BKN100 83.1 66.9 58% 86 30.06 0.0
01 09:10 S 6 10.00 Partly Cloudy SCT100 80.2 65.8 62% 82 30.06 0.0
01 08:50 S 7 10.00 Partly Cloudy SCT100 80.2 65.7 61% 82 30.07 0.0
01 08:30 S 6 5.00 Fair with Haze CLR 80.6 66.2 62% 83 30.06 0.0
01 08:10 SE 3 5.00 Fair with Haze CLR 77.7 65.3 66% 80 30.06 0.0
01 07:50 Calm 10.00 Fair CLR 76.1 65.7 70% 78 30.05 0.0
01 07:35 Calm 5.00 Fair with Haze CLR 74.5 64.2 70% 30.05 0.0
01 07:15 S 5 4.00 Fair with Haze CLR 73.8 63.9 71% 30.04 0.0
01 06:55 SE 3 10.00 Fair CLR 74.1 63.9 80.4 73.8 70% 30.04 0.0
01 06:30 S 3 7.00 Fair with Haze CLR 74.8 63.5 68% 30.03 0.0
01 06:10 S 8 10.00 Fair CLR 75.4 63.5 67% 77 30.03 0.0
01 05:50 S 8 10.00 Fair CLR 75.7 63.3 65% 78 30.02 0.0
01 05:30 S 8 10.00 Fair CLR 76.3 63.1 64% 78 30.03 0.0
01 05:10 S 7 10.00 Fair CLR 76.5 62.8 63% 78 30.02 0.0
01 04:50 S 7 10.00 Fair CLR 76.8 62.8 62% 79 30.02 0.0
01 04:30 S 8 10.00 Fair CLR 78.8 62.6 58% 80 30.02 0.0
01 04:10 S 8 10.00 Fair CLR 79 62.2 57% 80 30.02 0.0
01 03:50 S 9 10.00 Fair CLR 80.1 61.7 54% 81 30.01 0.0
01 03:30 S 8 10.00 Fair CLR 79.9 61.3 53% 81 30.01 0.0
01 03:10 S 7 10.00 Fair CLR 79.5 60.3 52% 81 30.01 0.0
01 02:50 S 7 10.00 Fair CLR 78.8 59.4 51% 80 30.01 0.0
01 02:30 S 7 10.00 Fair CLR 77.9 59 52% 79 30.01 0.0
01 02:10 S 7 10.00 Fair CLR 77 59.2 54% 79 30 0.0
01 01:50 S 6 10.00 Fair CLR 77.5 59.2 53% 79 30.01 0.0
01 01:30 S 7 10.00 Fair CLR 77.7 59.2 53% 79 30.01 0.0
01 01:10 S 7 10.00 Fair CLR 77.2 59.2 54% 79 30.01 0.0
01 00:50 S 6 10.00 Fair CLR 77.5 59 96.1 77.4 53% 79 30.01 0.0
01 00:35 S 7 10.00 Fair CLR 78.1 59 52% 79 30.01 0.0
01 00:15 S 6 10.00 Fair CLR 78.4 58.8 51% 80 30 0.0
31 23:50 S 7 10.00 Fair CLR 79.2 58.6 50% 80 29.99 0.0
31 23:30 S 7 10.00 Fair CLR 79.9 58.6 48% 81 30 0.0
31 23:10 S 7 10.00 Fair CLR 80.2 58.5 47% 81 30 0.0
Date Time (cdt) Wind (mph) Vis. (mi.) Weather Sky Cond. Air Dwpt Max. Min. Relative Humidity Wind Chill (°F) Heat Index (°F) altimeter (in) sea level (mb) 1 hr 3 hr 6 hr
6 hour
Temperature (ºF) Pressure Precipitation (in)